contact:dominique.lefevre@mio.osupytheas.fr, maurice.libes@osupytheas.fr, didier.mallarino@osupytheas.fr
Project:EMSO http://www.emso-fr.org/EMSO-France
Depth: 2436.0 m
Title:EMSO Ligure Ouest : Data MII capteur CSTAR
DateTime,Latitude,Longitude,Instrument_Serial,Reference_Counts,Signal_Counts,Corrected_Signal_raw_counts,Calculated_Beam_c_inverse_meters,Internal_thermistor_counts
DateTime,Latitude,Longitude,Instrument_Serial,Reference_Counts,Signal_Counts,Corrected_Signal_raw_counts,Calculated_Beam_c_inverse_meters,Internal_thermistor_counts
2019-05-17T07:20:07,42.805,6.029,CST-1368DR,9648,13509,15626,-0.003,552
2019-05-17T07:23:08,42.805,6.029,CST-1368DR,9648,13505,15622,-0.002,551
2019-05-17T07:26:10,42.805,6.029,CST-1368DR,9648,13511,15628,-0.003,551
2019-05-17T07:29:11,42.805,6.029,CST-1368DR,9648,13509,15626,-0.003,551
2019-05-17T07:32:13,42.805,6.029,CST-1368DR,9648,13507,15624,-0.002,551
2019-05-17T07:35:14,42.805,6.029,CST-1368DR,9647,13508,15627,-0.003,551
2019-05-17T07:38:15,42.805,6.029,CST-1368DR,9647,13506,15624,-0.002,551
2019-05-17T07:41:17,42.805,6.029,CST-1368DR,9646,13506,15625,-0.002,551
2019-05-17T07:44:18,42.805,6.029,CST-1368DR,9645,13504,15624,-0.002,550
2019-05-17T07:47:20,42.805,6.029,CST-1368DR,9644,13494,15614,0.001,551
2019-05-17T07:50:21,42.805,6.029,CST-1368DR,9643,13500,15623,-0.002,551
2019-05-17T07:53:22,42.805,6.029,CST-1368DR,9643,13499,15622,-0.002,551
2019-05-17T07:56:24,42.805,6.029,CST-1368DR,9642,13500,15624,-0.002,551
2019-05-17T07:59:25,42.805,6.029,CST-1368DR,9641,13499,15624,-0.002,551
2019-05-17T08:02:27,42.805,6.029,CST-1368DR,9640,13494,15621,-0.001,551
2019-05-17T08:05:28,42.805,6.029,CST-1368DR,9639,13494,15622,-0.002,551
2019-05-17T08:08:29,42.805,6.029,CST-1368DR,9639,13495,15623,-0.002,551
2019-05-17T08:11:31,42.805,6.029,CST-1368DR,9638,13494,15624,-0.002,551
2019-05-17T08:14:32,42.805,6.029,CST-1368DR,9637,13494,15624,-0.002,551
2019-05-17T08:17:34,42.805,6.029,CST-1368DR,9636,13489,15620,-0.001,551
2019-05-17T08:20:35,42.805,6.029,CST-1368DR,9635,13487,15620,-0.001,550
2019-05-17T08:23:36,42.805,6.029,CST-1368DR,9635,13488,15621,-0.001,551
2019-05-17T08:26:38,42.805,6.029,CST-1368DR,9634,13487,15621,-0.001,550
2019-05-17T08:29:39,42.805,6.029,CST-1368DR,9633,13487,15623,-0.002,551
2019-05-17T08:32:41,42.805,6.029,CST-1368DR,9632,13486,15623,-0.002,551
2019-05-17T08:35:42,42.805,6.029,CST-1368DR,9631,13485,15623,-0.002,551
2019-05-17T08:38:44,42.805,6.029,CST-1368DR,9631,13483,15621,-0.001,551
2019-05-17T08:41:45,42.805,6.029,CST-1368DR,9630,13483,15622,-0.002,551
2019-05-17T08:44:46,42.805,6.029,CST-1368DR,9629,13481,15622,-0.002,551
2019-05-17T08:47:48,42.805,6.029,CST-1368DR,9628,13480,15622,-0.002,551
2019-05-17T08:50:49,42.805,6.029,CST-1368DR,9628,13478,15619,-0.001,551
2019-05-17T08:53:51,42.805,6.029,CST-1368DR,9627,13477,15620,-0.001,551
2019-05-17T08:56:52,42.805,6.029,CST-1368DR,9626,13478,15623,-0.002,551
2019-05-17T08:59:53,42.805,6.029,CST-1368DR,9626,13477,15621,-0.001,551
2019-05-17T09:02:55,42.805,6.029,CST-1368DR,9625,13476,15621,-0.001,551
2019-05-17T09:05:56,42.805,6.029,CST-1368DR,9624,13475,15622,-0.002,551
2019-05-17T09:08:58,42.805,6.029,CST-1368DR,9624,13473,15620,-0.001,551
2019-05-17T09:11:59,42.805,6.029,CST-1368DR,9623,13470,15618,-0.001,551
2019-05-17T09:15:00,42.805,6.029,CST-1368DR,9622,13472,15621,-0.001,551
2019-05-17T09:18:02,42.805,6.029,CST-1368DR,9622,13471,15620,-0.001,551
2019-05-17T09:21:03,42.805,6.029,CST-1368DR,9621,13470,15621,-0.001,551
2019-05-17T09:24:05,42.805,6.029,CST-1368DR,9620,13470,15622,-0.002,551
2019-05-17T09:27:06,42.805,6.029,CST-1368DR,9620,13469,15622,-0.002,551
2019-05-17T09:30:07,42.805,6.029,CST-1368DR,9619,13467,15620,-0.001,551
2019-05-17T09:33:09,42.805,6.029,CST-1368DR,9618,13466,15621,-0.001,551
2019-05-17T09:36:10,42.805,6.029,CST-1368DR,9618,13465,15620,-0.001,551
2019-05-17T09:39:12,42.805,6.029,CST-1368DR,9617,13464,15620,-0.001,551
2019-05-17T09:42:13,42.805,6.029,CST-1368DR,9617,13464,15620,-0.001,551
2019-05-17T09:45:15,42.805,6.029,CST-1368DR,9616,13463,15620,-0.001,551
2019-05-17T09:48:16,42.805,6.029,CST-1368DR,9615,13461,15619,-0.001,551
2019-05-17T09:51:17,42.805,6.029,CST-1368DR,9615,13460,15618,-0.001,551
2019-05-17T09:54:19,42.805,6.029,CST-1368DR,9614,13461,15621,-0.001,551
2019-05-17T09:57:20,42.805,6.029,CST-1368DR,9614,13460,15620,-0.001,551
2019-05-17T10:00:22,42.805,6.029,CST-1368DR,9613,13458,15619,-0.001,551
2019-05-17T10:03:23,42.805,6.029,CST-1368DR,9612,13459,15621,-0.001,551
2019-05-17T10:06:24,42.805,6.029,CST-1368DR,9612,13457,15619,-0.001,551
2019-05-17T10:20:07,42.805,6.029,CST-1368DR,9611,13453,15615,0.000,551
2019-05-17T10:23:08,42.805,6.029,CST-1368DR,9610,13455,15620,-0.001,551
2019-05-17T10:26:10,42.805,6.029,CST-1368DR,9610,13453,15617,-0.000,551
2019-05-17T10:29:11,42.805,6.029,CST-1368DR,9609,13450,15615,0.000,551
2019-05-17T11:10:07,42.805,6.029,CST-1368DR,9608,13453,15620,-0.001,551
2019-05-17T11:13:08,42.805,6.029,CST-1368DR,9607,13447,15615,0.000,551
2019-05-17T11:16:10,42.805,6.029,CST-1368DR,9607,13447,15615,0.000,551
2019-05-17T11:19:11,42.805,6.029,CST-1368DR,9606,13447,15617,-0.000,551
2019-05-17T11:22:12,42.805,6.029,CST-1368DR,9606,13447,15616,0.000,551
2019-05-17T11:25:14,42.805,6.029,CST-1368DR,9605,13445,15615,0.000,551
2019-05-17T11:28:15,42.805,6.029,CST-1368DR,9605,13446,15617,-0.000,551
2019-05-17T11:31:17,42.805,6.029,CST-1368DR,9604,13445,15617,-0.000,551
2019-05-17T11:34:18,42.805,6.029,CST-1368DR,9604,13444,15616,0.000,551
2019-05-17T11:37:19,42.805,6.029,CST-1368DR,9603,13445,15618,-0.001,551
2019-05-17T11:40:21,42.805,6.029,CST-1368DR,9603,13442,15615,0.000,551
2019-05-17T11:43:22,42.805,6.029,CST-1368DR,9602,13441,15615,0.000,551
2019-05-17T11:46:24,42.805,6.029,CST-1368DR,9602,13444,15619,-0.001,551
2019-05-17T11:49:25,42.805,6.029,CST-1368DR,9601,13441,15617,-0.000,551
2019-05-17T11:52:26,42.805,6.029,CST-1368DR,9601,13440,15615,0.000,551
2019-05-17T11:55:28,42.805,6.029,CST-1368DR,9600,13441,15618,-0.001,551
2019-05-17T11:58:29,42.805,6.029,CST-1368DR,9600,13439,15616,0.000,551
2019-05-17T12:01:31,42.805,6.029,CST-1368DR,9599,13440,15619,-0.001,551
2019-05-17T12:04:32,42.805,6.029,CST-1368DR,9599,13436,15614,0.001,551
2019-05-17T12:07:34,42.805,6.029,CST-1368DR,9598,13437,15616,0.000,551
2019-05-17T12:10:35,42.805,6.029,CST-1368DR,9598,13437,15617,-0.000,551
2019-05-17T12:13:36,42.805,6.029,CST-1368DR,9597,13436,15616,0.000,551
2019-05-17T12:16:38,42.805,6.029,CST-1368DR,9597,13434,15615,0.000,551
2019-05-17T12:19:39,42.805,6.029,CST-1368DR,9596,13436,15618,-0.001,550
2019-05-17T12:22:41,42.805,6.029,CST-1368DR,9596,13427,15608,0.002,551
2019-05-17T12:25:42,42.805,6.029,CST-1368DR,9596,13433,15615,0.000,551
2019-05-17T12:28:43,42.805,6.029,CST-1368DR,9595,13431,15614,0.001,551
2019-05-17T12:31:45,42.805,6.029,CST-1368DR,9594,13431,15615,0.000,551
2019-05-17T12:34:46,42.805,6.029,CST-1368DR,9594,13428,15612,0.001,551
2019-05-17T12:37:48,42.805,6.029,CST-1368DR,9594,13432,15616,0.000,551
2019-05-17T12:40:49,42.805,6.029,CST-1368DR,9593,13430,15615,0.000,551
2019-05-17T12:43:50,42.805,6.029,CST-1368DR,9593,13431,15617,-0.000,551
2019-05-17T12:46:52,42.805,6.029,CST-1368DR,9592,13428,15615,0.000,551
2019-05-17T12:49:53,42.805,6.029,CST-1368DR,9592,13428,15615,0.000,550
2019-05-17T12:52:55,42.805,6.029,CST-1368DR,9591,13428,15616,0.000,551
2019-05-17T12:55:56,42.805,6.029,CST-1368DR,9591,13427,15615,0.000,551
2019-05-17T12:58:57,42.805,6.029,CST-1368DR,9591,13427,15615,0.000,551
2019-05-17T13:01:59,42.805,6.029,CST-1368DR,9590,13426,15616,0.000,551
2019-05-17T13:05:00,42.805,6.029,CST-1368DR,9590,13425,15614,0.001,551
2019-05-17T13:08:02,42.805,6.029,CST-1368DR,9589,13425,15616,0.000,551
2019-05-17T13:11:03,42.805,6.029,CST-1368DR,9589,13424,15615,0.000,551
2019-05-17T13:14:05,42.805,6.029,CST-1368DR,9588,13423,15615,0.000,551
2019-05-17T13:17:06,42.805,6.029,CST-1368DR,9588,13423,15615,0.000,551
2019-05-17T13:20:07,42.805,6.029,CST-1368DR,9588,13423,15615,0.000,551
2019-05-17T13:23:09,42.805,6.029,CST-1368DR,9587,13421,15614,0.001,551
2019-05-17T13:26:10,42.805,6.029,CST-1368DR,9587,13422,15616,0.000,551
2019-05-17T13:29:12,42.805,6.029,CST-1368DR,9587,13422,15615,0.000,551
2019-05-17T13:32:13,42.805,6.029,CST-1368DR,9586,13420,15615,0.000,551
2019-05-17T13:35:14,42.805,6.029,CST-1368DR,9586,13419,15614,0.001,551
2019-05-17T13:38:16,42.805,6.029,CST-1368DR,9585,13419,15615,0.000,551
2019-05-17T13:41:17,42.805,6.029,CST-1368DR,9585,13419,15615,0.000,551
2019-05-17T13:44:19,42.805,6.029,CST-1368DR,9585,13419,15615,0.000,551
2019-05-17T13:47:20,42.805,6.029,CST-1368DR,9584,13419,15617,-0.000,551
2019-05-17T13:50:21,42.805,6.029,CST-1368DR,9584,13418,15615,0.000,550
2019-05-17T13:53:23,42.805,6.029,CST-1368DR,9584,13417,15614,0.001,551
2019-05-17T13:56:24,42.805,6.029,CST-1368DR,9583,13413,15611,0.001,551
2019-05-17T13:59:26,42.805,6.029,CST-1368DR,9583,13413,15611,0.001,551
2019-05-17T14:02:27,42.805,6.029,CST-1368DR,9582,13412,15612,0.001,551
2019-05-17T14:05:28,42.805,6.029,CST-1368DR,9582,13415,15615,0.000,551
2019-05-17T14:08:30,42.805,6.029,CST-1368DR,9581,13414,15616,0.000,551
2019-05-17T14:11:31,42.805,6.029,CST-1368DR,9581,13415,15616,0.000,550
2019-05-17T14:14:33,42.805,6.029,CST-1368DR,9581,13413,15613,0.001,551
2019-05-17T14:17:34,42.805,6.029,CST-1368DR,9580,13408,15609,0.002,551
2019-05-17T14:20:36,42.805,6.029,CST-1368DR,9580,13413,15616,0.000,551
2019-05-17T14:23:37,42.805,6.029,CST-1368DR,9580,13412,15614,0.001,551
2019-05-17T14:26:38,42.805,6.029,CST-1368DR,9579,13409,15613,0.001,551
2019-05-17T14:29:40,42.805,6.029,CST-1368DR,9579,13411,15615,0.000,551
2019-05-17T14:32:41,42.805,6.029,CST-1368DR,9579,13408,15611,0.001,551
2019-05-17T14:35:43,42.805,6.029,CST-1368DR,9578,13410,15614,0.001,551
2019-05-17T14:38:44,42.805,6.029,CST-1368DR,9578,13409,15614,0.001,551
2019-05-17T14:41:45,42.805,6.029,CST-1368DR,9578,13408,15613,0.001,551
2019-05-17T14:44:47,42.805,6.029,CST-1368DR,9578,13409,15614,0.001,551
2019-05-17T14:47:48,42.805,6.029,CST-1368DR,9577,13409,15616,0.000,551
2019-05-17T14:50:50,42.805,6.029,CST-1368DR,9577,13405,15611,0.001,551
2019-05-17T14:53:51,42.805,6.029,CST-1368DR,9577,13406,15612,0.001,550
2019-05-17T14:56:52,42.805,6.029,CST-1368DR,9576,13405,15612,0.001,551
2019-05-17T14:59:54,42.805,6.029,CST-1368DR,9576,13404,15610,0.002,551
2019-05-17T15:02:55,42.805,6.029,CST-1368DR,9576,13405,15612,0.001,551
2019-05-17T15:05:57,42.805,6.029,CST-1368DR,9575,13406,15615,0.000,551
2019-05-17T15:08:58,42.805,6.029,CST-1368DR,9575,13404,15613,0.001,551
2019-05-17T15:11:59,42.805,6.029,CST-1368DR,9574,13403,15613,0.001,550
2019-05-17T15:15:01,42.805,6.029,CST-1368DR,9574,13403,15613,0.001,551
2019-05-17T15:18:02,42.805,6.029,CST-1368DR,9574,13404,15614,0.001,551
2019-05-17T15:21:04,42.805,6.029,CST-1368DR,9574,13404,15614,0.001,551
2019-05-17T15:24:05,42.805,6.029,CST-1368DR,9573,13404,15615,0.000,551
2019-05-17T15:27:07,42.805,6.029,CST-1368DR,9573,13397,15608,0.002,551
2019-05-17T15:30:08,42.805,6.029,CST-1368DR,9573,13402,15613,0.001,551
2019-05-17T15:33:09,42.805,6.029,CST-1368DR,9572,13401,15614,0.001,551
2019-05-17T15:36:11,42.805,6.029,CST-1368DR,9572,13400,15612,0.001,551
2019-05-17T15:39:12,42.805,6.029,CST-1368DR,9572,13400,15613,0.001,550
2019-05-17T15:42:14,42.805,6.029,CST-1368DR,9571,13395,15608,0.002,551
2019-05-17T15:45:15,42.805,6.029,CST-1368DR,9571,13398,15612,0.001,551
2019-05-17T15:48:16,42.805,6.029,CST-1368DR,9571,13398,15611,0.001,551
2019-05-17T15:51:18,42.805,6.029,CST-1368DR,9570,13398,15613,0.001,551
2019-05-17T15:54:19,42.805,6.029,CST-1368DR,9570,13396,15611,0.001,551
2019-05-17T15:57:21,42.805,6.029,CST-1368DR,9570,13397,15612,0.001,551
2019-05-17T16:00:22,42.805,6.029,CST-1368DR,9570,13395,15610,0.002,551
2019-05-17T16:03:23,42.805,6.029,CST-1368DR,9569,13396,15612,0.001,551
2019-05-17T16:06:25,42.805,6.029,CST-1368DR,9569,13396,15612,0.001,551
2019-05-17T16:09:26,42.805,6.029,CST-1368DR,9569,13397,15614,0.001,551
2019-05-17T16:12:28,42.805,6.029,CST-1368DR,9569,13397,15614,0.001,551
2019-05-17T16:15:29,42.805,6.029,CST-1368DR,9568,13394,15611,0.001,551
2019-05-17T16:18:30,42.805,6.029,CST-1368DR,9568,13381,15596,0.005,551
2019-05-17T16:21:32,42.805,6.029,CST-1368DR,9568,13394,15611,0.001,551
2019-05-17T16:24:33,42.805,6.029,CST-1368DR,9568,13396,15613,0.001,551
2019-05-17T16:27:35,42.805,6.029,CST-1368DR,9568,13396,15613,0.001,551
2019-05-17T16:30:36,42.805,6.029,CST-1368DR,9567,13395,15614,0.001,551
2019-05-17T16:33:38,42.805,6.029,CST-1368DR,9567,13395,15614,0.001,551
2019-05-17T16:36:39,42.805,6.029,CST-1368DR,9567,13393,15612,0.001,551
2019-05-17T16:39:40,42.805,6.029,CST-1368DR,9567,13395,15613,0.001,551
2019-05-17T16:42:42,42.805,6.029,CST-1368DR,9566,13393,15613,0.001,550
2019-05-17T16:45:43,42.805,6.029,CST-1368DR,9566,13393,15613,0.001,551
2019-05-17T16:48:45,42.805,6.029,CST-1368DR,9566,13393,15613,0.001,551
2019-05-17T16:51:46,42.805,6.029,CST-1368DR,9565,13392,15613,0.001,551
2019-05-17T16:54:47,42.805,6.029,CST-1368DR,9565,13392,15613,0.001,551
2019-05-17T16:57:49,42.805,6.029,CST-1368DR,9565,13392,15613,0.001,551
2019-05-17T17:00:50,42.805,6.029,CST-1368DR,9565,13389,15610,0.002,551
2019-05-17T17:03:52,42.805,6.029,CST-1368DR,9564,13392,15614,0.001,551
2019-05-17T17:06:53,42.805,6.029,CST-1368DR,9564,13392,15615,0.000,551
2019-05-17T17:09:54,42.805,6.029,CST-1368DR,9564,13390,15613,0.001,551
2019-05-17T17:12:56,42.805,6.029,CST-1368DR,9564,13389,15611,0.001,551
2019-05-17T17:15:57,42.805,6.029,CST-1368DR,9563,13386,15609,0.002,551
2019-05-17T17:18:59,42.805,6.029,CST-1368DR,9563,13390,15614,0.001,550
2019-05-17T17:22:00,42.805,6.029,CST-1368DR,9563,13390,15614,0.001,551
2019-05-17T17:25:01,42.805,6.029,CST-1368DR,9563,13389,15613,0.001,551
2019-05-17T17:28:03,42.805,6.029,CST-1368DR,9562,13389,15614,0.001,551
2019-05-17T17:31:04,42.805,6.029,CST-1368DR,9562,13387,15612,0.001,551
2019-05-17T17:34:06,42.805,6.029,CST-1368DR,9562,13388,15613,0.001,551
2019-05-17T17:37:07,42.805,6.029,CST-1368DR,9562,13388,15613,0.001,551
2019-05-17T17:40:09,42.805,6.029,CST-1368DR,9561,13387,15614,0.001,551
2019-05-17T17:43:10,42.805,6.029,CST-1368DR,9561,13388,15615,0.000,551
2019-05-17T17:46:11,42.805,6.029,CST-1368DR,9561,13387,15614,0.001,551
2019-05-17T17:49:13,42.805,6.029,CST-1368DR,9561,13387,15613,0.001,551
2019-05-17T17:52:14,42.805,6.029,CST-1368DR,9561,13386,15612,0.001,551
2019-05-17T17:55:16,42.805,6.029,CST-1368DR,9560,13386,15614,0.001,551
2019-05-17T17:58:17,42.805,6.029,CST-1368DR,9560,13384,15612,0.001,550
2019-05-17T18:01:18,42.805,6.029,CST-1368DR,9560,13383,15610,0.002,551
2019-05-17T18:04:20,42.805,6.029,CST-1368DR,9559,13384,15613,0.001,551
2019-05-17T18:07:21,42.805,6.029,CST-1368DR,9559,13382,15611,0.001,551
2019-05-17T18:10:23,42.805,6.029,CST-1368DR,9559,13383,15612,0.001,551
2019-05-17T18:13:24,42.805,6.029,CST-1368DR,9559,13383,15612,0.001,550
2019-05-17T18:16:25,42.805,6.029,CST-1368DR,9559,13384,15613,0.001,551
2019-05-17T18:19:27,42.805,6.029,CST-1368DR,9558,13379,15608,0.002,551
2019-05-17T18:22:28,42.805,6.029,CST-1368DR,9558,13383,15613,0.001,551
2019-05-17T18:25:30,42.805,6.029,CST-1368DR,9558,13382,15612,0.001,551
2019-05-17T18:28:31,42.805,6.029,CST-1368DR,9558,13383,15613,0.001,551
2019-05-17T18:31:32,42.805,6.029,CST-1368DR,9557,13378,15608,0.002,550
2019-05-17T18:34:34,42.805,6.029,CST-1368DR,9557,13382,15614,0.001,551
2019-05-17T18:37:35,42.805,6.029,CST-1368DR,9557,13382,15614,0.001,550
2019-05-17T18:40:37,42.805,6.029,CST-1368DR,9557,13380,15612,0.001,551
2019-05-17T18:43:38,42.805,6.029,CST-1368DR,9557,13380,15611,0.001,551
2019-05-17T18:46:40,42.805,6.029,CST-1368DR,9556,13380,15613,0.001,551
2019-05-17T18:49:41,42.805,6.029,CST-1368DR,9556,13379,15611,0.001,551
2019-05-17T18:52:42,42.805,6.029,CST-1368DR,9556,13380,15613,0.001,551
2019-05-17T18:55:44,42.805,6.029,CST-1368DR,9556,13377,15609,0.002,551
2019-05-17T18:58:45,42.805,6.029,CST-1368DR,9556,13379,15611,0.001,550
2019-05-17T19:01:47,42.805,6.029,CST-1368DR,9555,13379,15613,0.001,551
2019-05-17T19:04:48,42.805,6.029,CST-1368DR,9555,13378,15611,0.001,551
2019-05-17T19:07:49,42.805,6.029,CST-1368DR,9555,13378,15612,0.001,551
2019-05-17T19:10:51,42.805,6.029,CST-1368DR,9555,13379,15613,0.001,551
2019-05-17T19:13:52,42.805,6.029,CST-1368DR,9555,13377,15611,0.001,551
2019-05-17T19:16:54,42.805,6.029,CST-1368DR,9554,13376,15611,0.001,551
2019-05-17T19:19:55,42.805,6.029,CST-1368DR,9554,13377,15613,0.001,550
2019-05-17T19:22:56,42.805,6.029,CST-1368DR,9554,13374,15609,0.002,551
2019-05-17T19:25:58,42.805,6.029,CST-1368DR,9554,13373,15607,0.002,551
2019-05-17T19:28:59,42.805,6.029,CST-1368DR,9554,13377,15612,0.001,551
2019-05-17T19:32:01,42.805,6.029,CST-1368DR,9553,13376,15612,0.001,551
2019-05-17T19:35:02,42.805,6.029,CST-1368DR,9553,13376,15613,0.001,551
2019-05-17T19:38:03,42.805,6.029,CST-1368DR,9553,13375,15611,0.001,551
2019-05-17T19:41:05,42.805,6.029,CST-1368DR,9553,13375,15612,0.001,550
2019-05-17T19:44:06,42.805,6.029,CST-1368DR,9553,13376,15612,0.001,550
2019-05-17T19:47:08,42.805,6.029,CST-1368DR,9552,13376,15614,0.001,551
2019-05-17T19:50:09,42.805,6.029,CST-1368DR,9552,13375,15613,0.001,551
2019-05-17T19:53:11,42.805,6.029,CST-1368DR,9552,13374,15611,0.001,551
2019-05-17T19:56:12,42.805,6.029,CST-1368DR,9552,13375,15613,0.001,551
2019-05-17T19:59:13,42.805,6.029,CST-1368DR,9552,13373,15611,0.001,551
2019-05-17T20:02:15,42.805,6.029,CST-1368DR,9552,13373,15611,0.001,550
2019-05-17T20:05:16,42.805,6.029,CST-1368DR,9551,13373,15612,0.001,551
2019-05-17T20:08:18,42.805,6.029,CST-1368DR,9551,13373,15612,0.001,551
2019-05-17T20:11:19,42.805,6.029,CST-1368DR,9551,13373,15612,0.001,551
2019-05-17T20:14:20,42.805,6.029,CST-1368DR,9551,13372,15611,0.001,550
2019-05-17T20:17:22,42.805,6.029,CST-1368DR,9551,13369,15607,0.002,550
2019-05-17T20:20:23,42.805,6.029,CST-1368DR,9550,13372,15612,0.001,551
2019-05-17T20:23:25,42.805,6.029,CST-1368DR,9550,13372,15613,0.001,551
2019-05-17T20:26:26,42.805,6.029,CST-1368DR,9550,13371,15612,0.001,551
2019-05-17T20:29:27,42.805,6.029,CST-1368DR,9550,13371,15612,0.001,551
2019-05-17T20:32:29,42.805,6.029,CST-1368DR,9550,13371,15612,0.001,551
2019-05-17T20:35:30,42.805,6.029,CST-1368DR,9549,13370,15612,0.001,551
2019-05-17T20:38:32,42.805,6.029,CST-1368DR,9549,13367,15608,0.002,551
2019-05-17T20:41:33,42.805,6.029,CST-1368DR,9549,13370,15611,0.001,551
2019-05-17T20:44:34,42.805,6.029,CST-1368DR,9549,13369,15610,0.002,551
2019-05-17T20:47:36,42.805,6.029,CST-1368DR,9549,13370,15612,0.001,551
2019-05-17T20:50:37,42.805,6.029,CST-1368DR,9548,13370,15613,0.001,551
2019-05-17T20:53:39,42.805,6.029,CST-1368DR,9548,13369,15612,0.001,551
2019-05-17T20:56:40,42.805,6.029,CST-1368DR,9548,13368,15611,0.001,551
2019-05-17T20:59:42,42.805,6.029,CST-1368DR,9548,13368,15611,0.001,551
2019-05-17T21:02:43,42.805,6.029,CST-1368DR,9548,13369,15612,0.001,551
2019-05-17T21:05:44,42.805,6.029,CST-1368DR,9548,13369,15612,0.001,551
2019-05-17T21:08:46,42.805,6.029,CST-1368DR,9548,13368,15611,0.001,551
2019-05-17T21:11:47,42.805,6.029,CST-1368DR,9547,13369,15613,0.001,551
2019-05-17T21:14:49,42.805,6.029,CST-1368DR,9547,13367,15611,0.001,550
2019-05-17T21:17:50,42.805,6.029,CST-1368DR,9547,13367,15611,0.001,551
2019-05-17T21:20:51,42.805,6.029,CST-1368DR,9547,13367,15611,0.001,551
2019-05-17T21:23:53,42.805,6.029,CST-1368DR,9547,13366,15610,0.002,551
2019-05-17T21:26:54,42.805,6.029,CST-1368DR,9547,13366,15609,0.002,551
2019-05-17T21:29:56,42.805,6.029,CST-1368DR,9546,13365,15610,0.002,551
2019-05-17T21:32:57,42.805,6.029,CST-1368DR,9546,13365,15610,0.002,551
2019-05-17T21:35:58,42.805,6.029,CST-1368DR,9546,13365,15610,0.002,551
2019-05-17T21:39:00,42.805,6.029,CST-1368DR,9546,13365,15610,0.002,551
2019-05-17T21:42:01,42.805,6.029,CST-1368DR,9546,13364,15609,0.002,550
2019-05-17T21:45:03,42.805,6.029,CST-1368DR,9545,13365,15612,0.001,551
2019-05-17T21:48:04,42.805,6.029,CST-1368DR,9545,13365,15612,0.001,551
2019-05-17T21:51:06,42.805,6.029,CST-1368DR,9545,13364,15611,0.001,551
2019-05-17T21:54:07,42.805,6.029,CST-1368DR,9545,13363,15609,0.002,550
2019-05-17T21:57:08,42.805,6.029,CST-1368DR,9545,13364,15611,0.001,551
2019-05-17T22:00:10,42.805,6.029,CST-1368DR,9545,13363,15609,0.002,551
2019-05-17T22:03:11,42.805,6.029,CST-1368DR,9544,13362,15610,0.002,551
2019-05-17T22:06:13,42.805,6.029,CST-1368DR,9544,13361,15608,0.002,551
2019-05-17T22:09:14,42.805,6.029,CST-1368DR,9544,13363,15610,0.002,551
2019-05-17T22:12:15,42.805,6.029,CST-1368DR,9544,13360,15607,0.002,551
2019-05-17T22:15:17,42.805,6.029,CST-1368DR,9544,13359,15606,0.003,551
2019-05-17T22:18:18,42.805,6.029,CST-1368DR,9544,13357,15604,0.003,551
2019-05-17T22:21:20,42.805,6.029,CST-1368DR,9543,13355,15603,0.003,551
2019-05-17T22:24:21,42.805,6.029,CST-1368DR,9543,13359,15607,0.002,551
2019-05-17T22:27:22,42.805,6.029,CST-1368DR,9543,13357,15605,0.003,551
2019-05-17T22:30:24,42.805,6.029,CST-1368DR,9543,13360,15609,0.002,551
2019-05-17T22:33:25,42.805,6.029,CST-1368DR,9543,13362,15611,0.001,551
2019-05-17T22:36:27,42.805,6.029,CST-1368DR,9543,13361,15610,0.002,551
2019-05-17T22:39:28,42.805,6.029,CST-1368DR,9542,13361,15611,0.001,551
2019-05-17T22:42:29,42.805,6.029,CST-1368DR,9542,13361,15611,0.001,551
2019-05-17T22:45:31,42.805,6.029,CST-1368DR,9542,13360,15611,0.001,551
2019-05-17T22:48:32,42.805,6.029,CST-1368DR,9542,13359,15609,0.002,551
2019-05-17T22:51:34,42.805,6.029,CST-1368DR,9542,13359,15609,0.002,551
2019-05-17T22:54:35,42.805,6.029,CST-1368DR,9542,13360,15611,0.001,551
2019-05-17T22:57:37,42.805,6.029,CST-1368DR,9542,13360,15610,0.002,551
2019-05-17T23:00:38,42.805,6.029,CST-1368DR,9541,13360,15612,0.001,551
2019-05-17T23:03:39,42.805,6.029,CST-1368DR,9541,13360,15612,0.001,551
2019-05-17T23:06:41,42.805,6.029,CST-1368DR,9541,13359,15610,0.002,551
2019-05-17T23:09:42,42.805,6.029,CST-1368DR,9541,13359,15611,0.001,550
2019-05-17T23:12:44,42.805,6.029,CST-1368DR,9541,13358,15609,0.002,551
2019-05-17T23:15:45,42.805,6.029,CST-1368DR,9541,13359,15610,0.002,551
2019-05-17T23:18:46,42.805,6.029,CST-1368DR,9541,13360,15611,0.001,551
2019-05-17T23:21:48,42.805,6.029,CST-1368DR,9540,13360,15613,0.001,551
2019-05-17T23:24:49,42.805,6.029,CST-1368DR,9540,13359,15612,0.001,551
2019-05-17T23:27:51,42.805,6.029,CST-1368DR,9540,13358,15611,0.001,551
2019-05-17T23:30:52,42.805,6.029,CST-1368DR,9540,13359,15612,0.001,551
2019-05-17T23:33:53,42.805,6.029,CST-1368DR,9540,13358,15611,0.001,551
2019-05-17T23:36:55,42.805,6.029,CST-1368DR,9540,13358,15611,0.001,551
2019-05-17T23:39:56,42.805,6.029,CST-1368DR,9540,13357,15610,0.002,551
2019-05-17T23:42:58,42.805,6.029,CST-1368DR,9540,13358,15611,0.001,551
2019-05-17T23:45:59,42.805,6.029,CST-1368DR,9539,13357,15611,0.001,551
2019-05-17T23:49:00,42.805,6.029,CST-1368DR,9539,13358,15612,0.001,551
2019-05-17T23:52:02,42.805,6.029,CST-1368DR,9539,13357,15612,0.001,551
2019-05-17T23:55:03,42.805,6.029,CST-1368DR,9539,13358,15612,0.001,551
2019-05-17T23:58:05,42.805,6.029,CST-1368DR,9539,13357,15611,0.001,551
